Regional Weather Roundup
Issued by NWS Albany, NY

Home | Current Version | Previous Version | Text Only | Print | Product List | Glossary On
Versions: 1 2 3 4 5 6 7 8 9 10 11 12 13 14 15 16 17 18 19 20 21 22 23 24 25 26 27 28
000
ASUS41 KALY 011510
RWRALY

NEW YORK STATE HOURLY WEATHER ROUNDUP
NATIONAL WEATHER SERVICE ALBANY NY
1100 AM EDT SUN MAY 01 2016

NOTE: "FAIR" INDICATES FEW OR NO CLOUDS BELOW 12,000 FEET WITH NO
SIGNIFICANT WEATHER AND/OR NO OBSTRUCTIONS TO VISIBILITY.

NYZ032-033-038>043-046>054-057>066-NYZ062>081-082-084-011600-
EAST


CITY           SKY/WX    TMP DP  RH WIND       PRES   REMARKS
ALBANY         LGT RAIN  48  39  71 SE9       30.19S
GLENS FALLS    LGT RAIN  46  39  76 NE3       30.20R
POUGHKEEPSIE   CLOUDY    48  41  76 SE8       30.20F
NEWBURGH       DRIZZLE   45  41  87 SE9       30.20F
MONTGOMERY     LGT RAIN  47  40  76 SE10      30.19F
WHITE PLAINS   LGT RAIN  46  43  89 E6        30.20F
ISLIP          LGT RAIN  48  43  82 E9        30.22F
NEW YORK CITY  LGT RAIN  50  44  80 SE10      30.20F
CENTRAL PARK   LGT RAIN  48  44  86 VRB6      30.23F
$$

NYZ005>009-017-018-044>046-055-056-011600-
CENTRAL


CITY           SKY/WX    TMP DP  RH WIND       PRES   REMARKS
FULTON         LGT RAIN  49  45  86 SE7       30.06S FOG
SYRACUSE       LGT RAIN  46  42  86 SE14      30.07R FOG
ROME           LGT RAIN  46  45  96 SE10      30.12R FOG
ELMIRA         LGT RAIN  46  42  86 E6        30.03S FOG
BINGHAMTON     LGT RAIN  39  38  96 SE15      30.05S FOG     WCI  31
MONTICELLO     CLOUDY    39  39 100 SE8       30.16F WCI  34
$$

NYZ026>034-041>043-087-011600-
NORTH


CITY           SKY/WX    TMP DP  RH WIND       PRES   REMARKS
WATERTOWN      LGT RAIN  49  45  86 SE10      30.09R FOG
FORT DRUM      NOT AVBL
MASSENA        LGT RAIN  45  36  70 NE8       30.18S
SARANAC LAKE   LGT RAIN  44  41  89 CALM      30.12S
PLATTSBURGH    LGT RAIN  45  34  65 E3        30.18S
$$

NYZ001>004-010>016-019>021-085-011600-
WEST


CITY           SKY/WX    TMP DP  RH WIND       PRES   REMARKS
NIAGARA FALLS  CLOUDY    53  49  86 E8        29.92S
BUFFALO        DRIZZLE   52  50  93 E9        29.92R FOG
DUNKIRK        CLOUDY    53  52  96 NW6       29.91S FOG
JAMESTOWN      CLOUDY    52  50  93 S5        29.93S VSB<1/4
WELLSVILLE     CLOUDY    51  48  89 S7        29.97S
ROCHESTER      CLOUDY    51  48  89 SE14      29.97F
PENN YAN       CLOUDY    46  42  86 SE13      30.01S
$$

             KEY
       WCI = WIND CHILL INDEX
       VSB = VISIBILITY
       HX  = HEAT INDEX
$$




USA.gov is the U.S. government's official web portal to all federal, state and local government web resources and services.